30.06.2024;16:00;89
30.06.2024;15:00;84
30.06.2024;14:00;81
30.06.2024;13:00;90
30.06.2024;12:00;98
30.06.2024;11:00;94
30.06.2024;10:00;90
30.06.2024;09:00;88
30.06.2024;08:00;76
30.06.2024;07:00;86
30.06.2024;06:00;83
30.06.2024;05:00;70
30.06.2024;04:00;47
30.06.2024;03:00;42
30.06.2024;02:00;45
30.06.2024;01:00;50
30.06.2024;00:00;62
29.06.2024;23:00;59
29.06.2024;22:00;66
29.06.2024;21:00;81
29.06.2024;20:00;89
29.06.2024;19:00;91
29.06.2024;18:00;106
29.06.2024;17:00;108
29.06.2024;16:00;110
29.06.2024;15:00;115
29.06.2024;14:00;111
29.06.2024;13:00;109
29.06.2024;12:00;103
29.06.2024;11:00;95
29.06.2024;10:00;66
29.06.2024;09:00;48
29.06.2024;08:00;37
29.06.2024;07:00;26
29.06.2024;06:00;18
29.06.2024;05:00;16
29.06.2024;04:00;18
29.06.2024;03:00;16
29.06.2024;02:00;21
29.06.2024;01:00;38
29.06.2024;00:00;35
28.06.2024;23:00;43
28.06.2024;22:00;40
28.06.2024;21:00;84
28.06.2024;20:00;107
28.06.2024;19:00;113
28.06.2024;18:00;113
28.06.2024;17:00;107
